Погода в Ситуэ

Мьянма     20°08′27″N   92°52′32″E
темп.,
°C
ветер,
м/с
пор.,
м/с
влажн.,
%
обл.,
%
осадки,
мм/ч
давл.,
гПа
погр.,
м
5 декабря, вс
вс500:30+23св2275100 0.0 101443
03:30+23св2273100 0.0 101386
06:30+23св237690 0.0 101486
09:30+25ссв226697 0.0 1016206
12:30+25с2264100 0.0 1014209
15:30+29зюз215681 0.0 1011829
18:30+25зюз22745 0.0 1012114
21:30+24сз117827 0.0 1014108
6 декабря, пн
пн600:30+23св118314 0.0 101344
03:30+22св22879 0.1 101263
06:30+22всв22865 0.1 101357
09:30+27вюв236973 0.0 1015474
12:30+29ю336487 1.4 10131025
15:30+28ююз336885 2.4 1011794
18:30+25зюз2282100 3.1 1013162
21:30+24ссв2287100 0.3 101445
7 декабря, вт
вт700:30+23всв229111 0.3 101345
03:30+23всв229199 0.0 101283
06:30+23всв228998 0.0 101493
09:30+26св227738 0.0 1016271
12:30+29юз325950 0.1 10131243
15:30+27юз346557 0.1 1011547
18:30+26з127595 0.2 1013167
21:30+25сз118360 0.6 101587
8 декабря, ср
ср800:30+23св119018 2.1 101461
03:30+22ссв22941 0.3 101468
06:30+22св22942 0.3 101459
09:30+26св217618 0.0 1017379
12:30+30зюз21592 0.0 10141154
15:30+29зюз44615 0.0 1012705
18:30+25зсз47725 0.0 1013253
21:30+24сз24735 0.0 1015148
9 декабря, чт
чт900:30+23ссз348093 0.0 1015112
03:30+22ссв2484100 0.0 1014108
06:30+22ссв22858 0.0 101577
09:30+27св226729 0.0 1017403
12:30+30юз2156100 0.0 10151080
15:30+28зюз4462100 0.0 1013546
18:30+25зсз477624 0.0 1014276
21:30+24сз36850 0.0 1016208